Location: Corcelles
(46.1547°N, 4.7234°E)
Time: 04:34:06
(UTC+00:00)

Cosmos 1242 Rocket - Pass Details

Date: 14 July 2020
Orbit: 448 x 487 km, 81.2° (Epoch: 06 August)

Event Time Altitude Azimuth Distance (km) Brightness Sun altitude
Rises 03:16:36 0° 339° (NNW) 2,464 6.4 -7.3°
Reaches altitude 10° 03:18:49 10° 329° (NNW) 1,589 5.3 -7.0°
Maximum altitude 03:21:53 30° 266° (W) 835 3.3 -6.6°
Drops below altitude 10° 03:24:58 10° 204° (SSW) 1,587 4.6 -6.2°
Enters shadow 03:26:21 - 196° (SSW) 2,128 5.3 -6.0°
